Weather History for Land O' Lakes, WI

Change the Weather History Date:

Friday, January 18, 2013

  Actual Average (KEGV) Record (KEGV)
Temperature  
Mean Temperature 7 °F -  
Max Temperature 21 °F 15 °F 32 °F (1991)
Min Temperature -7 °F -1 °F -27 °F (2005)
Degree Days  
Heating Degree Days 58    
Moisture  
Dew Point 8 °F    
Average Humidity 85    
Maximum Humidity 93    
Minimum Humidity 77    
Precipitation  
Precipitation 0.00 in - - ()
Sea Level Pressure  
Sea Level Pressure 29.89 in    
Wind  
Wind Speed 2 mph (SSE)    
Max Wind Speed 8 mph    
Max Gust Speed -    
Visibility 7 miles    
Events Snow    
Averages and records for this station are not official NWS values.
T = Trace of Precipitation, MM = Missing Value Source: NWS Daily Summary

Daily Weather History Graph

Daily Weather History Graph

Search for Another Location

Airport:

Trip Planner

Search our weather history database for the weather conditions in past years. The results will help you decide how hot, cold, wet, or windy it might be!

Date:

Astronomy

Jan. 18, 2013 Rise Set
Actual Time 7:33 AM CST 4:42 PM CST
Civil Twilight 6:59 AM CST 5:15 PM CST
Nautical Twilight 6:22 AM CST 5:52 PM CST
Astronomical Twilight 5:47 AM CST 6:28 PM CST
Moon 10:43 AM CST (1/18) No Moon Set
Length of Visible Light 10h 15m
Length of Day
9h 09m
Waxing Crescent, 47% of the Moon is Illuminated
Jan 18
Waxing Crescent
Jan 18
First Quarter
Jan 26
Full
Feb 3
Last Quarter
Feb 10
New

Hourly Weather History & Observations

Time (CST) Temp. Windchill Dew Point Humidity Pressure Visibility Wind Dir Wind Speed Gust Speed Precip Events Conditions
12:15 AM 1.4 °F -6.2 °F -4.0 °F 78% 30.22 in 10.0 mi West 3.5 mph - N/A   Clear
12:35 AM -2.2 °F - -5.8 °F 85% 30.21 in 10.0 mi Calm Calm - N/A   Clear
12:55 AM -5.8 °F - -9.4 °F 84% 30.22 in 10.0 mi Calm Calm - N/A   Clear
1:15 AM -7.6 °F -16.5 °F -11.2 °F 84% 30.23 in 10.0 mi SW 3.5 mph - N/A   Clear
1:35 AM -5.8 °F - -11.2 °F 77% 30.21 in 10.0 mi Calm Calm - N/A   Clear
2:15 AM -5.8 °F - -9.4 °F 84% 30.22 in 10.0 mi Calm Calm - N/A   Clear
2:35 AM -4.0 °F - -7.6 °F 85% 30.21 in 10.0 mi Calm Calm - N/A   Clear
2:55 AM -2.2 °F - -5.8 °F 85% 30.22 in 10.0 mi Calm Calm - N/A   Scattered Clouds
3:15 AM -0.4 °F - -5.8 °F 78% 30.21 in 10.0 mi Calm Calm - N/A   Overcast
3:35 AM -0.4 °F - -4.0 °F 85% 30.20 in 10.0 mi Calm Calm - N/A   Overcast
3:55 AM 1.4 °F - -4.0 °F 78% 30.18 in 10.0 mi Calm Calm - N/A   Overcast
4:15 AM 1.4 °F - -4.0 °F 78% 30.18 in 10.0 mi Calm Calm - N/A   Overcast
4:35 AM 1.4 °F - -2.2 °F 85% 30.16 in 10.0 mi Calm Calm - N/A   Overcast
5:15 AM 3.2 °F -4.2 °F -0.4 °F 85% 30.13 in 10.0 mi South 3.5 mph - N/A   Overcast
5:35 AM 3.2 °F -4.2 °F -0.4 °F 85% 30.13 in 10.0 mi South 3.5 mph - N/A   Overcast
6:15 AM 5.0 °F -4.1 °F 1.4 °F 85% 30.10 in 5.0 mi South 4.6 mph - N/A Snow Light Snow
6:35 AM 5.0 °F -4.1 °F 1.4 °F 85% 30.09 in 2.5 mi South 4.6 mph - N/A Snow Light Snow
6:55 AM 6.8 °F -2.0 °F 3.2 °F 85% 30.08 in 1.8 mi South 4.6 mph - N/A Snow Light Snow
7:15 AM 6.8 °F -2.0 °F 3.2 °F 85% 30.07 in 1.5 mi South 4.6 mph - N/A Snow Light Snow
7:35 AM 8.6 °F 0.1 °F 3.2 °F 79% 30.04 in 2.0 mi SSE 4.6 mph - N/A Snow Light Snow
8:15 AM 8.6 °F -1.3 °F 5.0 °F 85% 30.01 in 1.2 mi SSE 5.8 mph - N/A Snow Light Snow
8:35 AM 8.6 °F -2.6 °F 5.0 °F 85% 29.99 in 1.8 mi South 6.9 mph - N/A Snow Light Snow
8:55 AM 8.6 °F -2.6 °F 5.0 °F 85% 29.97 in 2.5 mi SSE 6.9 mph - N/A Snow Light Snow
9:15 AM 8.6 °F -3.7 °F 5.0 °F 85% 29.95 in 0.8 mi SSE 8.1 mph - N/A Snow Light Snow
9:35 AM 10.4 °F 0.8 °F 5.0 °F 79% 29.94 in 1.0 mi SSE 5.8 mph - N/A Snow Light Snow
9:55 AM 10.4 °F -0.4 °F 5.0 °F 79% 29.93 in 0.5 mi SSE 6.9 mph - N/A Snow Snow
10:15 AM 10.4 °F -0.4 °F 6.8 °F 85% 29.92 in 1.2 mi SSE 6.9 mph - N/A Snow Light Snow
10:35 AM 10.4 °F 2.2 °F 6.8 °F 85% 29.91 in 1.0 mi SSE 4.6 mph - N/A Snow Light Snow
11:15 AM 12.2 °F 6.1 °F 8.6 °F 85% 29.88 in 0.5 mi SE 3.5 mph - N/A Snow Snow
11:35 AM 12.2 °F 1.7 °F 8.6 °F 85% 29.86 in 0.8 mi SE 6.9 mph - N/A Snow Light Snow
11:55 AM 14.0 °F 6.5 °F 8.6 °F 79% 29.84 in 1.8 mi South 4.6 mph - N/A Snow Light Snow
12:15 PM 14.0 °F 3.9 °F 10.4 °F 86% 29.82 in 2.0 mi SSE 6.9 mph - N/A Snow Light Snow
12:35 PM 14.0 °F - 10.4 °F 86% 29.82 in 2.5 mi Calm Calm - N/A Snow Light Snow
12:55 PM 15.8 °F 10.2 °F 10.4 °F 79% 29.79 in 2.5 mi South 3.5 mph - N/A Snow Light Snow
1:15 PM 17.6 °F - 12.2 °F 79% 29.77 in 2.5 mi Calm Calm - N/A Snow Light Snow
1:35 PM 17.6 °F 10.7 °F 12.2 °F 79% 29.76 in 5.0 mi SE 4.6 mph - N/A Snow Light Snow
1:55 PM 17.6 °F 10.7 °F 14.0 °F 86% 29.76 in 10.0 mi SSE 4.6 mph - N/A   Overcast
2:15 PM 19.4 °F 11.5 °F 14.0 °F 80% 29.75 in 10.0 mi SSE 5.8 mph - N/A   Overcast
2:35 PM 19.4 °F 12.8 °F 14.0 °F 80% 29.74 in 7.0 mi SSE 4.6 mph - N/A Snow Light Snow
2:55 PM 19.4 °F 14.3 °F 15.8 °F 86% 29.73 in 10.0 mi SSE 3.5 mph - N/A Snow Light Snow
3:15 PM 19.4 °F 14.3 °F 15.8 °F 86% 29.73 in 10.0 mi South 3.5 mph - N/A   Overcast
3:35 PM 19.4 °F 14.3 °F 15.8 °F 86% 29.72 in 10.0 mi SSE 3.5 mph - N/A   Overcast
3:55 PM 19.4 °F 12.8 °F 17.6 °F 93% 29.71 in 10.0 mi SE 4.6 mph - N/A   Overcast
4:15 PM 21.2 °F - 17.6 °F 86% 29.72 in 10.0 mi Calm Calm - N/A   Overcast
4:35 PM 21.2 °F - 17.6 °F 86% 29.72 in 10.0 mi Calm Calm - N/A   Overcast
5:15 PM 21.2 °F - 17.6 °F 86% 29.72 in 10.0 mi Calm Calm - N/A   Overcast
5:35 PM 21.2 °F - 17.6 °F 86% 29.72 in 10.0 mi Calm Calm - N/A   Overcast
5:55 PM 21.2 °F - 17.6 °F 86% 29.72 in 10.0 mi Calm Calm - N/A   Overcast
6:15 PM 21.2 °F - 17.6 °F 86% 29.70 in 10.0 mi Calm Calm - N/A   Overcast
6:35 PM 21.2 °F 16.4 °F 17.6 °F 86% 29.70 in 5.0 mi East 3.5 mph - N/A Snow Light Snow
6:55 PM 21.2 °F 16.4 °F 17.6 °F 86% 29.69 in 10.0 mi ESE 3.5 mph - N/A   Overcast
7:15 PM 21.2 °F - 17.6 °F 86% 29.69 in 10.0 mi Calm Calm - N/A   Overcast
7:35 PM 21.2 °F - 17.6 °F 86% 29.69 in 10.0 mi Calm Calm - N/A   Overcast
7:55 PM 19.4 °F - 17.6 °F 93% 29.70 in 10.0 mi Calm Calm - N/A   Overcast
8:15 PM 19.4 °F - 17.6 °F 93% 29.69 in 4.0 mi Calm Calm - N/A Snow Light Snow
8:35 PM 21.2 °F - 17.6 °F 86% 29.69 in 10.0 mi Calm Calm - N/A   Overcast
8:55 PM 21.2 °F - 17.6 °F 86% 29.68 in 10.0 mi Calm Calm - N/A   Overcast
9:15 PM 21.2 °F - 19.4 °F 93% 29.68 in 5.0 mi Calm Calm - N/A Snow Light Snow
9:35 PM 21.2 °F - 19.4 °F 93% 29.69 in 3.0 mi Calm Calm - N/A Snow Light Snow
10:35 PM 21.2 °F - 19.4 °F 93% 29.69 in 10.0 mi Calm Calm - N/A   Overcast
10:55 PM 21.2 °F - 19.4 °F 93% 29.69 in 10.0 mi Calm Calm - N/A   Overcast
11:15 PM 21.2 °F 16.4 °F 19.4 °F 93% 29.69 in 10.0 mi NNE 3.5 mph - N/A   Overcast
11:35 PM 21.2 °F - 19.4 °F 93% 29.69 in 10.0 mi Calm Calm - N/A   Overcast
11:55 PM 21.2 °F - 19.4 °F 93% 29.69 in 10.0 mi Calm Calm - N/A   Overcast